Regional Weather Roundup
Issued by NWS

Home | Current Version | Previous Version | Text Only | Print | Product List | Glossary Off
Versions: 1 2 3 4 5 6 7 8 9 10 11 12 13 14 15 16 17 18 19 20 21 22 23 24 25 26 27 28 29 30 31 32 33 34 35 36 37 38 39 40 41 42 43 44 45 46 47 48 49 50

000
ASUS43 KBIS 060002
RWRND

NORTH DAKOTA REGIONAL WEATHER ROUNDUP
NATIONAL WEATHER SERVICE BISMARCK ND
700 PM CDT SUN JUL 05 2015

NOTE: "FAIR" INDICATES FEW OR NO CLOUDS BELOW 12,000 FEET WITH NO
SIGNIFICANT WEATHER AND/OR OBSTRUCTIONS TO VISIBILITY.


NDZ001>003-009>011-017-060100-
NORTHWEST NORTH DAKOTA

CITY           SKY/WX    TMP DP  RH WIND       PRES   REMARKS
WILLISTON      CLOUDY    73  46  38 N14       30.02R
6HR MIN TEMP:  73; 6HR MAX TEMP:  77;

MINOT          CLOUDY    72  56  57 NW8       29.92S HAZE
$$

NDZ018>021-031>035-040>046-060100-
SOUTHWEST NORTH DAKOTA

CITY           SKY/WX    TMP DP  RH WIND       PRES   REMARKS
BISMARCK       CLOUDY    72  60  66 NW6       29.93R
6HR MIN TEMP:  72; 6HR MAX TEMP:  79;

DICKINSON      CLOUDY    67  57  70 NW7       29.99S HAZE
GARRISON         N/A     70  61  73 N10       29.94R
6HR MIN TEMP:  70; 6HR MAX TEMP:  78;

HETTINGER ARPT CLOUDY    66  56  70 N10       30.03R HAZE
$$

NDZ004>008-012>016-024-026-027-054-060100-
NORTHEAST NORTH DAKOTA

CITY           SKY/WX    TMP DP  RH WIND       PRES   REMARKS
GRAND FORKS    PTSUNNY   75  66  73 N9        29.81R
GRND FRKS AFB  SUNNY     73  65  77 N9        29.83R
DEVILS LAKE    PTSUNNY   72  61  68 N12       29.86S
$$

NDZ022-023-025-028>030-036>039-047>053-060100-
SOUTHEAST NORTH DAKOTA

CITY           SKY/WX    TMP DP  RH WIND       PRES   REMARKS
FARGO          PTSUNNY   77  68  73 NW21      29.79R
6HR MIN TEMP:  77; 6HR MAX TEMP:  85;

JAMESTOWN      LGT RAIN  71  66  84 NW5       29.86S
$$




USA.gov is the U.S. government's official web portal to all federal, state and local government web resources and services.